KE6JJJ-1 Weather Reports


time (UTC)temp
C
wind
direction
speed
KPH
gust
KPH
rain 1hr
cm
rain 24hr
cm
rain mn
cm
humidity
%
barometer
mb
20260503210534 18 270 9.7 22.5 0.00 0.00 0.00 66 1013.0
20260503210503 18 270 9.7 22.5 0.00 0.00 0.00 66 1013.0
20260503203503 17 180 8.0 17.7 0.00 0.00 0.00 66 1013.0
20260503200504 17 225 11.3 19.3 0.00 0.00 0.00 68 1013.2
20260503193503 17 225 9.7 19.3 0.00 0.00 0.00 68 1013.3
20260503190503 17 225 9.7 16.1 0.00 0.00 0.00 66 1013.2
20260503183503 17 248 11.3 22.5 0.00 0.00 0.00 69 1013.2
20260503180503 16 270 8.0 14.5 0.00 0.00 0.00 70 1013.1
20260503173503 16 248 8.0 12.9 0.00 0.00 0.00 70 1013.2
20260503170503 16 202 6.4 12.9 0.00 0.00 0.00 74 1013.1
20260503150503 13 225 3.2 4.8 0.00 0.00 0.00 83 1012.5
20260503130503 12 225 3.2 4.8 0.00 0.00 0.00 83 1010.9
20260503110503 12 225 4.8 9.7 0.00 0.00 0.00 83 1011.2
20260503090503 12 248 1.6 3.2 0.00 0.00 0.00 83 1011.4
20260503080712 13 270 6.4 11.3 0.00 0.00 0.00 82 1012.0
20260503080504 13 270 6.4 11.3 0.00 0.00 0.00 82 1012.0
20260503070503 13 270 4.8 6.4 0.00 0.00 0.00 82 1012.0
20260503053503 13 248 12.9 17.7 0.00 0.00 0.00 82 1012.5
20260503050503 13 225 3.2 8.0 0.00 0.00 0.00 82 1012.4
20260503043503 13 248 11.3 16.1 0.00 0.00 0.00 81 1012.0
20260503040503 13 248 9.7 16.1 0.00 0.00 0.00 81 1012.1
20260503033543 13 292 3.2 6.4 0.00 0.00 0.00 81 1011.9
20260503033503 13 292 3.2 6.4 0.00 0.00 0.00 81 1011.9
20260503030503 13 292 14.5 20.9 0.00 0.00 0.00 81 1011.4
20260503023824 13 292 11.3 16.1 0.00 0.00 0.00 80 1011.3
20260503023503 13 292 11.3 16.1 0.00 0.00 0.00 80 1011.3
20260503020537 13 248 9.7 20.9 0.00 0.00 0.00 79 1011.3
20260503020503 13 248 9.7 20.9 0.00 0.00 0.00 79 1011.3
20260503013503 14 248 4.8 11.3 0.00 0.00 0.00 77 1011.6
20260503010504 15 270 9.7 12.9 0.00 0.00 0.00 75 1011.7
20260503003812 15 225 11.3 17.7 0.00 0.00 0.00 74 1011.8
20260503003503 15 225 11.3 17.7 0.00 0.00 0.00 74 1011.8
20260503000503 15 270 14.5 24.1 0.00 0.00 0.00 73 1011.9
20260502233541 15 248 16.1 22.5 0.00 0.00 0.00 71 1012.3
20260502233503 15 248 16.1 22.5 0.00 0.00 0.00 71 1012.3
20260502230504 16 248 3.2 11.3 0.00 0.00 0.00 71 1012.5
20260502223503 16 270 9.7 14.5 0.00 0.00 0.00 71 1013.0
20260502220503 15 202 11.3 17.7 0.00 0.00 0.00 72 1013.4
20260502213503 15 248 9.7 12.9 0.00 0.00 0.00 71 1013.4